Location: *
(29.1167°S, 130.0000°E)
Time: 22:20:28
(UTC+00:00)

Cosmos 2056 Rocket - Pass Details

Date: 21 July 2019
Orbit: 741 x 801 km, 74.0° (Epoch: 19 August)

Event Time Altitude Azimuth Distance (km) Brightness Sun altitude
Rises 10:25:17 0° 335° (NNW) 3,289 7.3 -22.2°
Reaches altitude 10° 10:27:44 10° 331° (NNW) 2,361 6.5 -22.7°
Maximum altitude 10:33:00 56° 253° (WSW) 937 4.1 -23.9°
Enters shadow 10:37:05 17° 178° (S) 1,917 5.4 -24.7°
